This is the latest recevied weather packets stored in our database for station/object N4HAC. If no packets are shown the sender has not sent any weather packets the latest 10 day(s).
| Time | Temp. | Humidity | Pressure | Rain* | Wind** | Luminosity | Snow |
|---|---|---|---|---|---|---|---|
| 1777131227 | 13.89° C | 93% | 1005.9 hPa | 0 mm | - | 139 W/m² | - |
| 1777130927 | 13.89° C | 93% | 1006.1 hPa | 0 mm | - | 145 W/m² | - |
| 1777130623 | 13.33° C | 93% | 1006.1 hPa | 0 mm | - | 114 W/m² | - |
| 1777130320 | 13.33° C | 94% | 1006.1 hPa | 0 mm | - | 113 W/m² | - |
| 1777130017 | 13.33° C | 93% | 1006 hPa | 0 mm | - | 39 W/m² | - |
| 1777129712 | 13.33° C | 93% | 1006.1 hPa | 0 mm | - | 121 W/m² | - |
| 1777129412 | 13.33° C | 93% | 1005.8 hPa | 0 mm | - | 110 W/m² | - |
| 1777129106 | 13.33° C | 93% | 1005.7 hPa | 0 mm | - | 114 W/m² | - |
| 1777128802 | 13.33° C | 93% | 1005.8 hPa | 0 mm | - | 133 W/m² | - |
| 1777128500 | 13.33° C | 92% | 1005.8 hPa | 0 mm | - | 156 W/m² | - |
| 1777128196 | 13.89° C | 91% | 1006 hPa | 0 mm | - | 135 W/m² | - |
| 1777127894 | 13.89° C | 92% | 1006 hPa | 0 mm | - | 130 W/m² | - |
| 1777127591 | 13.33° C | 92% | 1005.9 hPa | 0 mm | - | 135 W/m² | - |
| 1777127288 | 13.33° C | 91% | 1005.8 hPa | 0 mm | - | 113 W/m² | - |
| 1777126984 | 13.33° C | 91% | 1005.7 hPa | 0 mm | - | 128 W/m² | - |
| 1777126680 | 13.33° C | 91% | 1006 hPa | 0 mm | - | 120 W/m² | - |
| 1777126375 | 13.33° C | 91% | 1005.8 hPa | 0 mm | - | 139 W/m² | - |
| 1777126071 | 13.33° C | 92% | 1005.9 hPa | 0 mm | - | 137 W/m² | - |
| 1777125768 | 13.33° C | 92% | 1005.7 hPa | 0 mm | - | 136 W/m² | - |
| 1777125464 | 13.33° C | 91% | 1005.7 hPa | 0 mm | - | 141 W/m² | - |
| 1777125160 | 13.33° C | 92% | 1005.8 hPa | 0 mm | - | 187 W/m² | - |
| 1777124855 | 13.33° C | 92% | 1005.7 hPa | 0 mm | - | 169 W/m² | - |
| 1777124552 | 13.33° C | 92% | 1005.8 hPa | 0 mm | - | 168 W/m² | - |
| 1777124248 | 13.33° C | 92% | 1005.9 hPa | 0 mm | - | 144 W/m² | - |
| 1777123945 | 12.78° C | 92% | 1005.8 hPa | 0 mm | - | 132 W/m² | - |
* Rain latest hour (hover to see other rain measurements)
** Current wind speed in m/s (hover to see current wind gust speed)